When you browse on this site, cookies collect data to enhance your experience and personalize the content and advertising you see.
Visit our Privacy Policy to learn more. By continuing to use the site, you agree to this use of cookies and data.
  • In Deutschland
  • Länderverzeichnis
  • Für 7 Tage
  • Wassertemperatur
  • Wetterkarte
  • Widgets
  • user-avatar
    Anmelden

    Stündliche Wetter Dresden

    Heute, 15 Oktober, Dienstag

    Zeit Temperatur Niederschläge Wind Luftdruck Luftfeuchtigkeit
    00:00 +14°C° 0 mm 3 m/S 747 mmHg 81%
    01:00 +14°C° 0 mm 3 m/S 747 mmHg 83%
    02:00 +13°C° 0 mm 3 m/S 746 mmHg 85%
    03:00 +13°C° 0 mm 3 m/S 746 mmHg 86%
    04:00 +12°C° 0 mm 3 m/S 745 mmHg 88%
    05:00 +12°C° 0 mm 3 m/S 745 mmHg 88%
    06:00 +12°C° 0 mm 3 m/S 745 mmHg 87%
    07:00 +13°C° 0 mm 2 m/S 745 mmHg 86%
    08:00 +14°C° 0 mm 3 m/S 745 mmHg 81%
    09:00 +17°C° 0 mm 3 m/S 744 mmHg 76%
    10:00 +19°C° 0 mm 3 m/S 744 mmHg 71%
    11:00 +20°C° 0 mm 3 m/S 744 mmHg 68%
    12:00 +20°C° 0 mm 3 m/S 743 mmHg 66%
    13:00 +21°C° 0 mm 3 m/S 743 mmHg 63%
    14:00 +21°C° 0 mm 3 m/S 743 mmHg 66%
    15:00 +20°C° 0 mm 3 m/S 742 mmHg 69%
    16:00 +20°C° 0 mm 2 m/S 742 mmHg 72%
    17:00 +18°C° 0 mm 2 m/S 741 mmHg 76%
    18:00 +17°C° 0 mm 2 m/S 741 mmHg 81%
    19:00 +16°C° 0 mm 2 m/S 741 mmHg 85%
    20:00 +16°C° 0 mm 2 m/S 741 mmHg 85%
    21:00 +15°C° 0 mm 2 m/S 741 mmHg 85%
    22:00 +14°C° 0 mm 3 m/S 741 mmHg 85%
    23:00 +15°C° 0 mm 4 m/S 742 mmHg 84%

    Morgen, 16 Oktober, Mittwoch

    Zeit Temperatur Niederschläge Wind Luftdruck Luftfeuchtigkeit
    00:00 +15°C° 0 mm 6 m/S 742 mmHg 82%
    01:00 +15°C° 0 mm 7 m/S 743 mmHg 80%
    02:00 +15°C° 0 mm 7 m/S 743 mmHg 78%
    03:00 +14°C° 0 mm 7 m/S 744 mmHg 76%
    04:00 +14°C° 0 mm 7 m/S 744 mmHg 74%
    05:00 +12°C° 0.2 mm 7 m/S 745 mmHg 75%
    06:00 +12°C° 0.2 mm 7 m/S 745 mmHg 76%
    07:00 +11°C° 0.2 mm 7 m/S 746 mmHg 78%
    08:00 +12°C° 0 mm 7 m/S 746 mmHg 73%
    09:00 +12°C° 0 mm 7 m/S 747 mmHg 69%
    10:00 +13°C° 0 mm 8 m/S 747 mmHg 64%
    11:00 +15°C° 0 mm 7 m/S 747 mmHg 60%
    12:00 +15°C° 0 mm 7 m/S 747 mmHg 57%
    13:00 +16°C° 0 mm 7 m/S 747 mmHg 53%
    14:00 +16°C° 0 mm 6 m/S 747 mmHg 57%
    15:00 +15°C° 0 mm 6 m/S 747 mmHg 60%
    16:00 +15°C° 0 mm 5 m/S 747 mmHg 64%
    17:00 +14°C° 0 mm 5 m/S 747 mmHg 67%
    18:00 +13°C° 0 mm 4 m/S 748 mmHg 71%
    19:00 +12°C° 0 mm 4 m/S 748 mmHg 74%
    20:00 +12°C° 0 mm 4 m/S 748 mmHg 74%
    21:00 +13°C° 0 mm 4 m/S 748 mmHg 73%
    22:00 +13°C° 0 mm 4 m/S 749 mmHg 72%
    23:00 +13°C° 0 mm 4 m/S 749 mmHg 73%

    übermorgen, 17 Oktober, Donnerstag

    Zeit Temperatur Niederschläge Wind Luftdruck Luftfeuchtigkeit
    00:00 +13°C° 0 mm 3 m/S 749 mmHg 73%
    01:00 +12°C° 0 mm 3 m/S 749 mmHg 73%
    02:00 +12°C° 0 mm 3 m/S 749 mmHg 72%
    03:00 +12°C° 0 mm 3 m/S 749 mmHg 71%
    04:00 +12°C° 0 mm 3 m/S 749 mmHg 71%
    05:00 +12°C° 0 mm 3 m/S 749 mmHg 70%
    06:00 +12°C° 0 mm 3 m/S 749 mmHg 70%
    07:00 +11°C° 0 mm 3 m/S 749 mmHg 70%
    08:00 +13°C° 0 mm 3 m/S 749 mmHg 66%
    09:00 +14°C° 0 mm 3 m/S 750 mmHg 61%
    10:00 +17°C° 0 mm 4 m/S 750 mmHg 56%
    11:00 +17°C° 0 mm 4 m/S 750 mmHg 55%
    12:00 +18°C° 0 mm 4 m/S 750 mmHg 54%
    13:00 +19°C° 0 mm 4 m/S 750 mmHg 52%
    14:00 +18°C° 0 mm 3 m/S 750 mmHg 57%
    15:00 +18°C° 0 mm 3 m/S 750 mmHg 61%
    16:00 +17°C° 0 mm 2 m/S 750 mmHg 66%
    17:00 +16°C° 0 mm 2 m/S 750 mmHg 70%
    18:00 +15°C° 0 mm 2 m/S 750 mmHg 74%
    19:00 +15°C° 0 mm 2 m/S 750 mmHg 79%
    20:00 +14°C° 0 mm 2 m/S 750 mmHg 81%
    21:00 +14°C° 0 mm 2 m/S 751 mmHg 84%
    22:00 +13°C° 0 mm 2 m/S 751 mmHg 86%
    23:00 +13°C° 0 mm 2 m/S 751 mmHg 86%

    18 Oktober, Freitag

    Zeit Temperatur Niederschläge Wind Luftdruck Luftfeuchtigkeit
    00:00 +13°C° 0 mm 2 m/S 751 mmHg 87%
    01:00 +13°C° 0 mm 2 m/S 751 mmHg 87%
    02:00 +13°C° 0 mm 2 m/S 751 mmHg 85%
    03:00 +13°C° 0 mm 1 m/S 751 mmHg 84%
    04:00 +13°C° 0 mm 1 m/S 751 mmHg 83%
    05:00 +13°C° 0 mm 1 m/S 751 mmHg 84%
    06:00 +13°C° 0 mm 2 m/S 751 mmHg 86%
    07:00 +12°C° 0 mm 2 m/S 751 mmHg 87%
    08:00 +14°C° 0 mm 2 m/S 751 mmHg 80%
    09:00 +16°C° 0 mm 3 m/S 751 mmHg 73%
    10:00 +18°C° 0 mm 3 m/S 751 mmHg 66%
    11:00 +18°C° 0 mm 3 m/S 751 mmHg 63%
    12:00 +19°C° 0 mm 3 m/S 750 mmHg 60%
    13:00 +20°C° 0 mm 3 m/S 750 mmHg 57%
    14:00 +19°C° 0 mm 3 m/S 750 mmHg 59%
    15:00 +18°C° 0 mm 3 m/S 750 mmHg 62%
    16:00 +18°C° 0 mm 2 m/S 750 mmHg 65%
    17:00 +17°C° 0 mm 2 m/S 750 mmHg 66%
    18:00 +16°C° 0 mm 2 m/S 750 mmHg 67%
    19:00 +14°C° 0 mm 3 m/S 750 mmHg 68%
    20:00 +15°C° 0 mm 2 m/S 750 mmHg 67%
    21:00 +15°C° 0 mm 2 m/S 750 mmHg 67%
    22:00 +15°C° 0 mm 2 m/S 750 mmHg 66%
    23:00 +15°C° 0 mm 2 m/S 750 mmHg 68%

    19 Oktober, Samstag

    Zeit Temperatur Niederschläge Wind Luftdruck Luftfeuchtigkeit
    00:00 +15°C° 0 mm 2 m/S 750 mmHg 70%
    01:00 +15°C° 0 mm 1 m/S 750 mmHg 72%
    02:00 +14°C° 0 mm 1 m/S 750 mmHg 75%
    03:00 +14°C° 0 mm 1 m/S 750 mmHg 77%
    04:00 +13°C° 0 mm 1 m/S 750 mmHg 80%
    05:00 +13°C° 0 mm 1 m/S 750 mmHg 81%
    06:00 +13°C° 0 mm 1 m/S 750 mmHg 83%
    07:00 +12°C° 0 mm 0 m/S 750 mmHg 84%
    08:00 +14°C° 0 mm 1 m/S 750 mmHg 78%
    09:00 +16°C° 0 mm 1 m/S 750 mmHg 72%
    10:00 +18°C° 0 mm 1 m/S 749 mmHg 66%
    11:00 +19°C° 0 mm 1 m/S 749 mmHg 63%
    12:00 +20°C° 0 mm 1 m/S 749 mmHg 59%
    13:00 +21°C° 0 mm 1 m/S 749 mmHg 56%
    14:00 +19°C° 0 mm 2 m/S 748 mmHg 60%
    15:00 +19°C° 0 mm 2 m/S 748 mmHg 64%
    16:00 +18°C° 0 mm 2 m/S 747 mmHg 68%
    17:00 +17°C° 0 mm 2 m/S 747 mmHg 72%
    18:00 +16°C° 0 mm 2 m/S 747 mmHg 77%
    19:00 +15°C° 0 mm 2 m/S 746 mmHg 82%
    20:00 +14°C° 0 mm 2 m/S 746 mmHg 84%
    21:00 +14°C° 0 mm 2 m/S 746 mmHg 85%
    22:00 +14°C° 0 mm 2 m/S 745 mmHg 87%
    23:00 +13°C° 0 mm 2 m/S 745 mmHg 88%

    20 Oktober, Sonntag

    Zeit Temperatur Niederschläge Wind Luftdruck Luftfeuchtigkeit
    00:00 +13°C° 0 mm 2 m/S 744 mmHg 89%
    01:00 +12°C° 0 mm 2 m/S 744 mmHg 90%
    02:00 +12°C° 0 mm 2 m/S 743 mmHg 91%
    03:00 +12°C° 0 mm 2 m/S 743 mmHg 91%
    04:00 +12°C° 0 mm 2 m/S 743 mmHg 92%
    05:00 +12°C° 0 mm 2 m/S 743 mmHg 92%
    06:00 +12°C° 0 mm 2 m/S 743 mmHg 92%
    07:00 +12°C° 0 mm 2 m/S 743 mmHg 92%
    08:00 +12°C° 0 mm 3 m/S 743 mmHg 86%
    09:00 +14°C° 0 mm 3 m/S 743 mmHg 79%
    10:00 +15°C° 0 mm 4 m/S 743 mmHg 73%
    11:00 +17°C° 0 mm 4 m/S 744 mmHg 71%
    12:00 +17°C° 0 mm 4 m/S 744 mmHg 70%
    13:00 +17°C° 0 mm 4 m/S 744 mmHg 69%
    14:00 +15°C° 0.7 mm 4 m/S 745 mmHg 76%
    15:00 +14°C° 0.7 mm 3 m/S 745 mmHg 83%
    16:00 +12°C° 0.7 mm 3 m/S 745 mmHg 90%
    17:00 +12°C° 0.2 mm 3 m/S 746 mmHg 89%
    18:00 +12°C° 0.2 mm 3 m/S 746 mmHg 87%
    19:00 +12°C° 0.2 mm 3 m/S 747 mmHg 86%
    20:00 +12°C° 0 mm 3 m/S 747 mmHg 86%
    21:00 +11°C° 0 mm 3 m/S 748 mmHg 86%
    22:00 +12°C° 0 mm 2 m/S 748 mmHg 87%
    23:00 +12°C° 0 mm 2 m/S 748 mmHg 87%
    Mehr zeigen